N0REH Weather Reports


Display with metric or nautical units.
time (UTC)temp
F
wind
direction
speed
MPH
gust
MPH
rain 1hr
in
rain 24hr
in
rain mn
in
humidity
%
barometer
mb
20260503003001 65 233 8.0 12.0 0.00 0.00 0.00 39 1010.5
20260503001601 65 191 3.0 8.0 0.00 0.00 0.00 39 1010.4
20260503000107 65 283 1.0 12.0 0.00 0.00 0.00 38 1010.5
20260502234615 66 274 11.0 22.0 0.00 0.00 0.00 36 1010.7
20260502233058 66 276 4.0 9.0 0.00 0.00 0.00 33 1010.4
20260502231555 66 187 3.0 10.0 0.00 0.00 0.00 34 1010.5
20260502230042 66 238 2.0 10.0 0.00 0.00 0.00 34 1010.6
20260502224540 66 218 0.0 6.0 0.00 0.00 0.00 34 1010.8
20260502223046 66 280 2.0 9.0 0.00 0.00 0.00 33 1011.1
20260502221537 66 231 3.0 14.0 0.00 0.00 0.00 33 1011.1
20260502220034 66 251 3.0 12.0 0.00 0.00 0.00 33 1011.4
20260502214537 66 276 8.0 15.0 0.00 0.00 0.00 33 1011.6
20260502213042 67 226 5.0 14.0 0.00 0.00 0.00 33 1011.7
20260502211531 66 259 6.0 13.0 0.00 0.00 0.00 33 1012.0
20260502210015 66 280 7.0 14.0 0.00 0.00 0.00 33 1012.3
20260502204513 65 276 5.0 15.0 0.00 0.00 0.00 33 1012.6
20260502203008 64 181 4.0 14.0 0.00 0.00 0.00 34 1012.9
20260502201520 64 225 7.0 16.0 0.00 0.00 0.00 33 1013.3
20260502200003 63 226 5.0 10.0 0.00 0.00 0.00 34 1013.7
20260502194604 63 262 5.0 11.0 0.00 0.00 0.00 34 1014.0
20260502193113 62 242 7.0 12.0 0.00 0.00 0.00 36 1014.3
20260502191554 62 266 6.0 15.0 0.00 0.00 0.00 36 1014.6
20260502190041 61 283 4.0 12.0 0.00 0.00 0.00 35 1014.9
20260502184537 60 252 7.0 14.0 0.00 0.00 0.00 34 1015.2
20260502183023 60 158 4.0 16.0 0.00 0.00 0.00 39 1015.5
20260502181515 60 252 2.0 11.0 0.00 0.00 0.00 35 1015.5
20260502163058 56 281 4.0 8.0 0.00 0.00 0.00 39 1017.4
20260502161540 55 285 3.0 12.0 0.00 0.00 0.00 41 1017.6
20260502151538 53 255 3.0 9.0 0.00 0.00 0.00 47 1018.1
20260502123013 41 274 3.0 7.0 0.00 0.00 0.00 65 1018.7
20260502121555 41 280 0.0 2.0 0.00 0.00 0.00 67 1018.6
20260502114535 0 0.0 0.0 0.00 0.00 0.00 1018.5
20260502113037 0 0.0 0.0 0.00 0.00 0.00 1018.3
20260502111527 0 0.0 0.0 0.00 0.00 0.00 1018.2
20260502110026 0 0.0 0.0 0.00 0.00 0.00 1018.3
20260502104532 0 0.0 0.0 0.00 0.00 0.00 1018.3
20260502103025 0 0.0 0.0 0.00 0.00 0.00 1018.2
20260502101521 0 0.0 0.0 0.00 0.00 0.00 1018.2
20260502091501 42 212 1.0 5.0 0.00 0.00 0.00 58 1018.2
20260502090122 43 249 2.0 6.0 0.00 0.00 0.00 58 1018.2
20260502070054 43 211 0.0 2.0 0.00 0.00 0.00 58 1018.4
20260502064537 43 238 0.0 2.0 0.00 0.00 0.00 56 1018.6
20260502063037 43 225 0.0 3.0 0.00 0.00 0.00 57 1018.6
20260502061534 43 235 0.0 2.0 0.00 0.00 0.00 57 1018.7
20260502060040 43 232 0.0 1.0 0.00 0.00 0.00 56 1018.7
20260502054514 44 197 0.0 3.0 0.00 0.00 0.00 54 1018.7
20260502053011 44 266 0.0 3.0 0.00 0.00 0.00 54 1018.7
20260502051552 45 235 0.0 2.0 0.00 0.00 0.00 52 1018.7
20260502050050 45 248 0.0 3.0 0.00 0.00 0.00 50 1018.7
20260502044530 46 232 0.0 2.0 0.00 0.00 0.00 48 1018.6
20260502043030 46 248 0.0 3.0 0.00 0.00 0.00 47 1018.6
20260502041529 46 255 0.0 4.0 0.00 0.00 0.00 47 1018.5
20260502040035 46 252 0.0 2.0 0.00 0.00 0.00 48 1018.6
20260502034516 46 232 0.0 2.0 0.00 0.00 0.00 49 1018.6
20260502033115 46 229 0.0 1.0 0.00 0.00 0.00 48 1018.6
20260502031514 45 226 0.0 1.0 0.00 0.00 0.00 50 1018.7
20260502030012 46 207 0.0 1.0 0.00 0.00 0.00 50 1018.7
20260502024508 47 241 0.0 1.0 0.00 0.00 0.00 46 1018.6
20260502023011 48 243 0.0 0.0 0.00 0.00 0.00 43 1018.6
20260502021552 49 243 0.0 1.0 0.00 0.00 0.00 40 1018.6
20260502020051 50 252 0.0 3.0 0.00 0.00 0.00 39 1018.4
20260502014603 50 248 0.0 1.0 0.00 0.00 0.00 38 1018.2
20260502013055 51 60 0.0 1.0 0.00 0.00 0.00 35 1018.1
20260502011604 52 57 0.0 3.0 0.00 0.00 0.00 34 1017.9
20260502010049 52 37 0.0 6.0 0.00 0.00 0.00 33 1017.9
20260502004547 53 49 0.0 2.0 0.00 0.00 0.00 32 1017.9